Flag for Finland Weather past 2 weeks in Jyväskylä, Finland

Now
39 °F

Passing clouds.


Feels Like: 39 °F
Forecast: 47 / 58 °F
Wind: No wind

Location: Jyvaskyla Airport

Current Time: May 30, 2015 at 4:16:33 AM

Latest Report: May 30, 2015 at 3:50 AM


Visibility: N/A

Pressure: 29.83 "Hg

Humidity: 100%

Dew point: 39 °F

Location of JyväskyläLocation

Historic Weather in Jyväskylä — Graph

°F

Jyväskylä temperature yesterday

Maximum temperature yesterday: 61 °F (at 1:50 PM)
Minimum temperature yesterday: 37 °F (at 2:50 AM)
Average temperature yesterday: 51 °F

Past Weeks' High & Low Weather Summary

 TemperatureHumidityPressure
High66 °F (May 25, 6:20 PM)100% (May 16, 2:50 AM)30.04 "Hg (May 16, 2:50 AM)
Low34 °F (May 17, 2:50 AM)30% (May 28, 5:50 PM)29.47 "Hg (May 15, 3:20 AM)
Average48 °F71%29.76 "Hg
* Reported May 15 3:20 AM — May 30 3:20 AM, Jyväskylä, Weather by CustomWeather, © 2015

Note: Actual official high and low records may vary slightly from our data, if they occured in-between our weather recording intervals... More about our weather records

Advertising

Jyväskylä weather history for previous 24 hours

 ConditionsComfort  
Time TempWeatherWind HumidityBarometerVisibility
3:20 AM
Sat, May 30
41 °FClear.1 mph93%29.83 "Hg10 mi
2:50 AM39 °FPassing clouds.2 mph93%29.83 "HgN/A
2:20 AM43 °FClear.No wind87%29.83 "Hg10 mi
1:50 AM41 °FClear.2 mph93%29.80 "Hg10 mi
1:20 AM43 °FQuite cool.1 mph93%29.80 "HgN/A
12:50 AM43 °FClear.3 mph93%29.80 "Hg10 mi
12:20 AM45 °FClear.2 mph93%29.77 "Hg10 mi
11:50 PM
Fri, May 29
45 °FClear.3 mph93%29.77 "Hg10 mi
11:20 PM46 °FSunny.2 mph93%29.77 "Hg10 mi
10:50 PM46 °FSunny.3 mph93%29.77 "Hg10 mi
10:20 PM48 °FScattered clouds.5 mph87%29.74 "HgN/A
9:50 PM50 °FPassing clouds.6 mph88%29.74 "HgN/A
9:20 PM52 °FPassing clouds.5 mph88%29.74 "HgN/A
8:50 PM52 °FPartly sunny.6 mph88%29.74 "HgN/A
8:20 PM52 °FPartly sunny.7 mph88%29.74 "HgN/A
7:50 PM52 °FBroken clouds.7 mph88%29.71 "HgN/A
7:20 PM52 °FRain. Partly sunny.5 mph82%29.74 "HgN/A
6:50 PM52 °FPartly sunny.7 mph88%29.71 "HgN/A
6:20 PM50 °FLight rain. Partly sunny.7 mph94%29.74 "HgN/A
5:50 PM50 °FSprinkles. Overcast.5 mph94%29.74 "HgN/A
5:20 PM52 °FSprinkles. Overcast.9 mph82%29.71 "HgN/A
4:50 PM55 °FLight rain. Partly sunny.12 mph67%29.71 "HgN/A
4:20 PM59 °FScattered showers. Overcast.16 mph48%29.68 "HgN/A
3:50 PM61 °FSunny.16 mph45%29.71 "Hg10 mi
3:20 PM61 °FPassing clouds.16 mph45%29.71 "HgN/A
2:50 PM61 °FSunny.14 mph45%29.71 "Hg10 mi
2:20 PM59 °FPassing clouds.16 mph48%29.71 "HgN/A
1:50 PM61 °FPassing clouds.13 mph48%29.71 "HgN/A
1:20 PM59 °FPassing clouds.14 mph51%29.71 "HgN/A
12:50 PM59 °FPassing clouds.14 mph48%29.71 "HgN/A
12:20 PM59 °FSunny.16 mph45%29.71 "Hg10 mi
11:50 AM57 °FPartly sunny.15 mph51%29.71 "HgN/A
11:20 AM57 °FPartly sunny.17 mph51%29.71 "HgN/A
10:50 AM57 °FScattered clouds.15 mph48%29.71 "HgN/A
10:20 AM57 °FScattered clouds.13 mph48%29.71 "HgN/A
9:50 AM57 °FPassing clouds.14 mph51%29.71 "HgN/A
9:13 AM55 °FPassing clouds.14 mph55%29.71 "HgN/A
8:50 AM55 °FSunny.14 mph59%29.71 "Hg10 mi
8:20 AM54 °FPassing clouds.7 mph63%29.71 "HgN/A
7:50 AM52 °FPassing clouds.6 mph72%29.74 "HgN/A
7:20 AM48 °FSunny.5 mph76%29.74 "Hg10 mi
6:20 AM46 °FPassing clouds.3 mph76%29.74 "HgN/A
5:50 AM43 °FSunny.1 mph87%29.74 "Hg10 mi
5:20 AM41 °FSunny.No wind87%29.74 "Hg10 mi
4:50 AM37 °FSunny.No wind87%29.71 "Hg10 mi
4:20 AM37 °FClear.No wind87%29.74 "Hg10 mi
Weather by CustomWeather, © 2015

See weather overviewHow to use our weather pages